Terminal Aerodrome Forecast
Issued by NWS

Home | Current Version | Previous Version | Graphics & Text | Print | Product List | Glossary On
Versions: 1 2 3 4 5 6 7 8 9 10 11 12 13 14 15 16 17 18 19 20 21 22 23 24 25 26 27 28 29 30 31
856
FTUS43 KLOT 312132 AAC
TAFORD
TAF AMD
KORD 312132Z 3122/0124 01010KT 6SM -RA BR SCT035 BKN120
      TEMPO 3122/3123 35008KT 2SM TSRA BKN035CB BKN080
     FM312300 03007KT P6SM VCSH SCT050 BKN080
     FM010200 12004KT P6SM SCT050 BKN080
     FM010900 15007KT P6SM SCT050 BKN100 PROB30 0109/0114 4SM TSRA
      SCT040CB BKN080
     FM011400 18008KT P6SM VCTS SCT040CB BKN080
      TEMPO 0114/0118 4SM TSRA BKN040CB
     FM012100 21010KT P6SM BKN040 PROB30 0121/0124 4SM TSRA SCT040CB
      BKN080=

USA.gov is the U.S. government's official web portal to all federal, state and local government web resources and services.